Location: Antioch Church
(34.9543°N, 88.5145°W)
Time: 00:28:09
(UTC+00:00)

Lacrosse 5 - Pass Details

Date: 11 December 2019
Orbit: 717 x 722 km, 57.0° (Epoch: 10 January)

Event Time Altitude Azimuth Distance (km) Brightness Sun altitude
Exits shadow 10:47:41 13° 200° (SSW) 1,970 4.0 -24.7°
Drops below altitude 10° 10:48:31 10° 193° (SSW) 2,191 4.3 -24.5°
Sets 10:51:23 0° 177° (S) 3,108 5.3 -23.9°
